Weather History for KCBK - January, 2013

Change the Weather History Date:

Wednesday, January 23, 2013

  Actual Average (KGLD) Record (KGLD)
Temperature  
Mean Temperature 36 °F 30 °F  
Max Temperature 50 °F 42 °F 69 °F (1981)
Min Temperature 23 °F 17 °F -9 °F (1963)
Degree Days  
Heating Degree Days 28 35  
Month to date heating degree days 807  
Since 1 July heating degree days 3214  
Cooling Degree Days 0 0  
Month to date cooling degree days 0  
Year to date cooling degree days 0  
Moisture  
Dew Point 24 °F    
Average Humidity 70    
Maximum Humidity 100    
Minimum Humidity 35    
Precipitation  
Precipitation 0.00 in 0.01 in 1.12 in (1921)
Month to date precipitation 0.27  
Year to date precipitation 0.27  
Snow  
Snow 0.00 in 0.20 in - ()
Month to date snowfall 4.2  
Since 1 July snowfall 16.9  
Snow Depth -    
Sea Level Pressure  
Sea Level Pressure 30.17 in    
Wind  
Wind Speed 10 mph (North)    
Max Wind Speed 14 mph    
Max Gust Speed -    
Visibility 10 miles    
Events      
T = Trace of Precipitation, MM = Missing Value Source: NWS Daily Summary

Daily Weather History Graph

Daily Weather History Graph

Search for Another Location

Airport or City:

Trip Planner

Search our weather history database for the weather conditions in past years. The results will help you decide how hot, cold, wet, or windy it might be!

Date:

Astronomy

Jan. 23, 2013 Rise Set
Actual Time 7:58 AM CST 5:54 PM CST
Civil Twilight 7:29 AM CST 6:23 PM CST
Nautical Twilight 6:56 AM CST 6:55 PM CST
Astronomical Twilight 6:24 AM CST 7:27 PM CST
Moon 3:06 PM CST (1/23) 5:11 AM CST (1/23)
Length of Visible Light 10h 53m
Length of Day
9h 55m
Waxing Gibbous, 89% of the Moon is Illuminated
Jan 23
Waxing Gibbous
Jan 26
Full
Feb 3
Last Quarter
Feb 10
New
Feb 17
First Quarter

Hourly Weather History & Observations

Time (CST) Temp. Windchill Dew Point Humidity Pressure Visibility Wind Dir Wind Speed Gust Speed Precip Events Conditions
12:15 AM 32.0 °F 24.2 °F 26.6 °F 80% 30.15 in 10.0 mi WSW 9.2 mph - N/A   Clear
12:35 AM 32.0 °F 24.2 °F 26.6 °F 80% 30.15 in 10.0 mi SW 9.2 mph - N/A   Clear
12:55 AM 32.0 °F 24.8 °F 26.6 °F 80% 30.15 in 10.0 mi SW 8.1 mph - N/A   Clear
1:15 AM 32.0 °F 23.6 °F 26.6 °F 80% 30.15 in 10.0 mi WSW 10.4 mph - N/A   Clear
1:55 AM 32.0 °F 24.2 °F 24.8 °F 75% 30.14 in 10.0 mi WSW 9.2 mph - N/A   Clear
2:15 AM 30.2 °F 24.3 °F 24.8 °F 80% 30.14 in 10.0 mi WSW 5.8 mph - N/A   Clear
2:35 AM 32.0 °F 26.4 °F 23.0 °F 69% 30.15 in 10.0 mi WSW 5.8 mph - N/A   Clear
2:55 AM 30.2 °F 21.9 °F 23.0 °F 75% 30.14 in 10.0 mi WSW 9.2 mph - N/A   Clear
3:55 AM 28.4 °F 21.2 °F 21.2 °F 74% 30.12 in 10.0 mi WSW 6.9 mph - N/A   Clear
4:15 AM 26.6 °F 18.2 °F 21.2 °F 80% 30.11 in 10.0 mi WSW 8.1 mph - N/A   Clear
4:35 AM 26.6 °F 17.5 °F 21.2 °F 80% 30.10 in 10.0 mi WSW 9.2 mph - N/A   Clear
4:55 AM 26.6 °F 18.2 °F 21.2 °F 80% 30.09 in 10.0 mi WSW 8.1 mph - N/A   Clear
5:15 AM 23.0 °F 13.9 °F 19.4 °F 86% 30.09 in 10.0 mi West 8.1 mph - N/A   Clear
5:35 AM 23.0 °F 13.1 °F 19.4 °F 86% 30.09 in 10.0 mi West 9.2 mph - N/A   Clear
6:35 AM 26.6 °F 16.8 °F 21.2 °F 80% 30.09 in 10.0 mi West 10.4 mph - N/A   Clear
6:55 AM 26.6 °F 16.8 °F 21.2 °F 80% 30.10 in 10.0 mi West 10.4 mph - N/A   Clear
7:15 AM 24.8 °F 14.0 °F 21.2 °F 86% 30.10 in 10.0 mi WSW 11.5 mph - N/A   Clear
7:35 AM 26.6 °F 16.2 °F 21.2 °F 80% 30.10 in 10.0 mi West 11.5 mph - N/A   Clear
7:55 AM 28.4 °F 18.0 °F 21.2 °F 74% 30.10 in 10.0 mi West 12.7 mph - N/A   Clear
8:15 AM 28.4 °F 18.0 °F 21.2 °F 74% 30.10 in 10.0 mi West 12.7 mph - N/A   Clear
8:35 AM 30.2 °F 20.2 °F 21.2 °F 69% 30.11 in 10.0 mi West 12.7 mph - N/A   Clear
8:55 AM 30.2 °F 20.8 °F 23.0 °F 75% 30.12 in 10.0 mi West 11.5 mph - N/A   Clear
9:15 AM 33.8 °F 26.4 °F 23.0 °F 65% 30.11 in 10.0 mi WNW 9.2 mph - N/A   Clear
9:35 AM 33.8 °F 27.7 °F 23.0 °F 65% 30.13 in 10.0 mi WNW 6.9 mph - N/A   Clear
9:55 AM 35.6 °F 28.6 °F 23.0 °F 60% 30.14 in 10.0 mi WNW 9.2 mph - N/A   Clear
10:15 AM 41.0 °F 35.2 °F 23.0 °F 49% 30.14 in 10.0 mi NW 9.2 mph - N/A   Clear
10:35 AM 42.8 °F 36.2 °F 23.0 °F 46% 30.16 in 10.0 mi NW 12.7 mph - N/A   Clear
10:55 AM 44.6 °F 38.4 °F 23.0 °F 43% 30.17 in 10.0 mi NW 12.7 mph - N/A   Clear
11:15 AM 46.4 °F 41.9 °F 23.0 °F 40% 30.16 in 10.0 mi NNW 9.2 mph - N/A   Clear
11:35 AM 46.4 °F 41.5 °F 23.0 °F 40% 30.17 in 10.0 mi NNW 10.4 mph - N/A   Clear
11:55 AM 46.4 °F 42.4 °F 23.0 °F 40% 30.16 in 10.0 mi NNW 8.1 mph - N/A   Clear
12:15 PM 50.0 °F - 23.0 °F 35% 30.15 in 10.0 mi North 10.4 mph - N/A   Clear
12:35 PM 50.0 °F - 23.0 °F 35% 30.14 in 10.0 mi North 9.2 mph - N/A   Clear
12:55 PM 50.0 °F - 23.0 °F 35% 30.14 in 10.0 mi North 9.2 mph - N/A   Clear
1:15 PM 50.0 °F - 23.0 °F 35% 30.13 in 10.0 mi NNE 11.5 mph - N/A   Clear
1:35 PM 50.0 °F - 24.8 °F 37% 30.13 in 10.0 mi NNE 10.4 mph - N/A   Clear
1:55 PM 50.0 °F - 24.8 °F 37% 30.12 in 10.0 mi NNE 11.5 mph - N/A   Clear
2:15 PM 48.2 °F - 24.8 °F 40% 30.13 in 10.0 mi NE 11.5 mph - N/A   Clear
2:35 PM 46.4 °F 41.9 °F 24.8 °F 43% 30.13 in 10.0 mi NE 9.2 mph - N/A   Clear
2:55 PM 44.6 °F 39.7 °F 24.8 °F 46% 30.12 in 10.0 mi NE 9.2 mph - N/A   Clear
3:15 PM 42.8 °F 37.5 °F 26.6 °F 53% 30.14 in 10.0 mi ENE 9.2 mph - N/A   Clear
3:35 PM 41.0 °F 34.7 °F 26.6 °F 57% 30.15 in 10.0 mi ENE 10.4 mph - N/A   Clear
3:55 PM 42.8 °F 36.6 °F 26.6 °F 53% 30.16 in 10.0 mi NE 11.5 mph - N/A   Clear
4:15 PM 41.0 °F 33.9 °F 28.4 °F 61% 30.17 in 10.0 mi NE 12.7 mph - N/A   Clear
4:35 PM 39.2 °F 31.2 °F 28.4 °F 65% 30.18 in 10.0 mi NE 13.8 mph - N/A   Clear
4:55 PM 37.4 °F 30.8 °F 26.6 °F 65% 30.19 in 10.0 mi ENE 9.2 mph - N/A   Clear
5:15 PM 35.6 °F 28.0 °F 26.6 °F 70% 30.18 in 10.0 mi NE 10.4 mph - N/A   Clear
5:35 PM 35.6 °F 28.0 °F 26.6 °F 70% 30.19 in 10.0 mi ENE 10.4 mph - N/A   Clear
5:55 PM 32.0 °F 23.6 °F 26.6 °F 80% 30.19 in 10.0 mi ENE 10.4 mph - N/A   Clear
6:15 PM 32.0 °F 23.6 °F 26.6 °F 80% 30.19 in 10.0 mi ENE 10.4 mph - N/A   Clear
6:35 PM 32.0 °F 24.2 °F 26.6 °F 80% 30.20 in 10.0 mi East 9.2 mph - N/A   Clear
6:55 PM 32.0 °F 22.1 °F 26.6 °F 80% 30.21 in 10.0 mi ENE 13.8 mph - N/A   Clear
7:15 PM 32.0 °F 23.0 °F 26.6 °F 80% 30.22 in 10.0 mi East 11.5 mph - N/A   Clear
7:55 PM 30.2 °F 21.3 °F 26.6 °F 86% 30.26 in 10.0 mi ENE 10.4 mph - N/A   Clear
8:15 PM 30.2 °F 21.3 °F 26.6 °F 86% 30.26 in 10.0 mi ENE 10.4 mph - N/A   Clear
8:35 PM 30.2 °F 20.8 °F 26.6 °F 86% 30.26 in 10.0 mi East 11.5 mph - N/A   Clear
8:55 PM 28.4 °F 19.1 °F 26.6 °F 93% 30.27 in 10.0 mi ENE 10.4 mph - N/A   Clear
9:15 PM 28.4 °F 19.1 °F 26.6 °F 93% 30.27 in 10.0 mi East 10.4 mph - N/A   Clear
9:35 PM 28.4 °F 18.5 °F 26.6 °F 93% 30.27 in 10.0 mi East 11.5 mph - N/A   Clear
9:55 PM 28.4 °F 19.7 °F 26.6 °F 93% 30.29 in 10.0 mi East 9.2 mph - N/A   Clear
10:15 PM 26.6 °F 17.5 °F 24.8 °F 93% 30.29 in 10.0 mi East 9.2 mph - N/A   Clear
10:35 PM 26.6 °F 17.5 °F 24.8 °F 93% 30.29 in 10.0 mi East 9.2 mph - N/A   Clear
10:55 PM 26.6 °F 17.5 °F 24.8 °F 93% 30.30 in 10.0 mi East 9.2 mph - N/A   Clear
11:15 PM 26.6 °F 18.2 °F 24.8 °F 93% 30.31 in 10.0 mi East 8.1 mph - N/A   Clear
11:35 PM 23.0 °F 14.7 °F 23.0 °F 100% 30.31 in 10.0 mi East 6.9 mph - N/A   Clear
11:55 PM 23.0 °F 15.8 °F 23.0 °F 100% 30.30 in 10.0 mi East 5.8 mph - N/A   Scattered Clouds